This demonstration page uses our WeatherBlox Daily Observations layout. Learn more.

Left ArrowRight Arrow

Hourly Observations for January 27, 2022

Temp ( °F °C ) Dew Point ( °F °C ) Humidity (%) Winds ( mph kmh ) Pressure ( in mb ) Visibility ( mi km ) Precip ( " mm )
12:53 am 00:53 Cloudy -4 -20 -7 -21.7 86 86 Calm 30.63 1037 9 14 0.00 0.00
1:16 am 01:16 Mostly Clear -5 -20.6 -9 -22.8 83 83 N 5 7 30.91 1047 10 16 0.00 0.00
1:53 am 01:53 Mostly Cloudy -4 -20 -9 -22.8 79 79 NW 3 6 30.64 1038 9 14 0.00 0.00
2:53 am 02:53 Clear -6 -21.1 -10 -23.3 83 83 Calm 30.69 1039 10 16 0.00 0.00
3:14 am 03:14 Mostly Clear -6 -21.1 -10 -23.3 83 83 Calm 30.98 1049 10 16 0.00 0.00
3:53 am 03:53 Mostly Cloudy -7 -21.7 -10 -23.3 87 87 NE 3 6 30.71 1040 9 14 0.00 0.00
4:08 am 04:08 Partly Cloudy -7 -21.7 -11 -23.9 82 82 NNE 3 6 31.00 1050 7 11 0.00 0.00
4:53 am 04:53 Clear -8 -22.2 -12 -24.4 82 82 Calm 30.73 1041 10 16 0.00 0.00
5:53 am 05:53 Clear -8 -22.2 -13 -25 78 78 Calm 30.76 1042 9 14 0.00 0.00
6:08 am 06:08 Mostly Clear -8 -22.2 -12 -24.4 82 82 Calm 31.05 1051 8 13 0.00 0.00
6:25 am 06:25 Mostly Cloudy with Haze -7 -21.7 -12 -24.4 79 79 ENE 3 6 31.05 1051 5 8 0.00 0.00
6:49 am 06:49 Partly Cloudy -8 -22 -11 -24 84 84 Calm 31.07 1052 9 14 0.00 0.00
6:53 am 06:53 Partly Cloudy -7 -21.7 -11 -23.9 82 82 Calm 30.80 1043 10 16 0.00 0.00
7:53 am 07:53 Sunny -8 -22.2 -12 -24.4 82 82 Calm 30.86 1045 10 16 0.00 0.00
8:00 am 08:00 Partly Cloudy -8 -22.2 -12 -24.4 82 82 Calm 31.11 1054 10 16 0.00 0.00
8:20 am 08:20 Mostly Cloudy -7 -21.7 -12 -24.4 79 79 NNW 3 6 31.10 1053 9 14 0.00 0.00
8:39 am 08:39 Mostly Cloudy -6 -21.1 -10 -23.3 83 83 NNE 3 6 31.10 1053 10 16 0.00 0.00
9:53 am 09:53 Sunny -1 -18.3 -5 -20.6 82 82 E 3 6 30.88 1046 10 16 0.00 0.00
10:00 am 10:00 Mostly Sunny 0 -17.8 -3 -19.4 87 87 E 3 6 31.05 1051 10 16 0.00 0.00
10:53 am 10:53 Sunny 5 -15 2 -16.7 87 87 Calm 30.89 1046 10 16 0.00 0.00
11:53 am 11:53 Sunny 11 -11.7 2 -16.7 67 67 Calm 30.86 1045 10 16 0.00 0.00
12:53 pm 12:53 Sunny 13 -10.6 4 -15.6 67 67 NE 3 6 30.85 1045 10 16 0.00 0.00
1:53 pm 13:53 Sunny 13 -10.6 7 -13.9 77 77 WSW 3 6 30.84 1044 10 16 0.00 0.00
2:53 pm 14:53 Sunny 14 -10 8 -13.3 77 77 WSW 3 6 30.84 1045 10 16 0.00 0.00
3:53 pm 15:53 Sunny 16 -8.9 7 -13.9 67 67 Calm 30.85 1045 10 16 0.00 0.00
4:53 pm 16:53 Sunny 14 -10 6 -14.4 71 71 Calm 30.87 1045 10 16 0.00 0.00
5:53 pm 17:53 Clear 9 -12.8 3 -16.1 77 77 ENE 3 6 30.90 1046 10 16 0.00 0.00
6:53 pm 18:53 Clear 2 -16.7 -1 -18.3 88 88 NNE 3 6 30.94 1048 8 13 0.00 0.00
7:17 pm 19:17 Mostly Clear 0 -17.8 -4 -20 83 83 ENE 3 6 31.09 1053 8 13 0.00 0.00
7:53 pm 19:53 Clear with Mist and Fog -1 -18.3 -5 -20.6 82 82 NE 5 7 30.96 1048 5 8 0.00 0.00
8:04 pm 20:04 Partly Cloudy with Mist and Fog -2 -18.9 -5 -20.6 87 87 NE 6 9 31.12 1054 5 8 0.00 0.00
8:13 pm 20:13 Mostly Cloudy with Mist and Fog -1 -18.3 -5 -20.6 82 82 NE 5 7 31.11 1054 4 6 0.00 0.00
8:41 pm 20:41 Cloudy with Mist and Fog -1 -18.3 -5 -20.6 82 82 Calm 31.12 1054 2 3 0.00 0.00
8:53 pm 20:53 Cloudy with Mist and Fog -2 -18.9 -6 -21.1 83 83 NE 3 6 30.96 1048 2 3 0.00 0.00
9:03 pm 21:03 Mostly Cloudy with Mist and Fog -2 -18.9 -6 -21.1 83 83 NE 3 6 31.13 1054 3 5 0.00 0.00
9:13 pm 21:13 Mostly Cloudy with Mist and Fog -2 -18.9 -6 -21.1 83 83 NE 3 6 31.13 1054 2 3 0.00 0.00
9:23 pm 21:23 Mostly Cloudy with Mist and Fog -3 -19.4 -7 -21.7 82 82 NE 3 6 31.16 1055 3 4 0.00 0.00
9:35 pm 21:35 Cloudy with Mist and Fog -3 -19.4 -7 -21.7 82 82 ENE 3 6 31.16 1055 4 6 0.00 0.00
9:53 pm 21:53 Partly Cloudy -3 -19.4 -7 -21.7 82 82 Calm 30.97 1049 8 13 0.00 0.00
10:53 pm 22:53 Clear -4 -20 -8 -22.2 83 83 NE 5 7 30.95 1048 10 16 0.00 0.00
11:53 pm 23:53 Clear -4 -20 -8 -22.2 83 83 ENE 6 9 30.94 1048 9 14 0.00 0.00

Powered by AerisWeather